User: anonymous   Login
Location: Mactaquac Provincial Park
(45.9573°N, 66.8897°W)
Time: 02:20:59
(UTC-03:00)
Language:

Cosmos 1766 - Orbit

View from above orbital plane
View from above orbital plane
View from above satellite
View from above satellite

Ground track
Ground track

The orbit data is extracted from the following two-line orbital elements,

1 16881U 86055A   17112.90766158 +.00002122 +00000-0 +12839-3 0  9995
2 16881 082.5073 077.7466 0013893 292.9545 067.0218 15.10060365651933
Epoch (UTC): 22 April 2017 21:47:01
Eccentricity: 0.0013893
inclination: 82.5073°
perigee height: 526 km
apogee height: 545 km
right ascension of ascending node: 77.7466°
argument of perigee: 292.9545°
revolutions per day: 15.10060365
mean anomaly at epoch: 67.0218°
orbit number at epoch: 65193

The dashed part of the orbit path shows where the satellite is in the earth's shadow,  

DLR